Fort Leonard Wood, MO

8:48 AM CDT on June 24, 2017 (GMT -0500)
Waynesville Regional At Forney Field

Weather History for KTBN - September, 2014

Change the Weather History Date:

Tuesday, September 16, 2014

  Actual Average Record
Temperature  
Mean Temperature 60 °F -  
Max Temperature 64 °F 76 °F 100 °F (1997)
Min Temperature 56 °F 58 °F 43 °F (2008)
Degree Days  
Heating Degree Days 5    
Growing Degree Days 10 (Base 50)    
Moisture  
Dew Point 59 °F    
Average Humidity 94    
Maximum Humidity 100    
Minimum Humidity 83    
Precipitation  
Precipitation 0.00 in - - ()
Sea Level Pressure  
Sea Level Pressure 30.17 in    
Wind  
Wind Speed 5 mph (NE)    
Max Wind Speed 8 mph    
Max Gust Speed -    
Visibility 7 miles    
Events Fog    
Averages and records for this station are not official NWS values.
T = Trace of Precipitation, MM = Missing Value Source: NWS Daily Summary

Daily Weather History Graph

Daily Weather History Graph

Search for Another Location

Airport or City:

Trip Planner

Search our weather history database for the weather conditions in past years. The results will help you decide how hot, cold, wet, or windy it might be!

Date:

Astronomy

Sep. 16, 2014 Rise Set
Actual Time 6:51 AM CDT 7:14 PM CDT
Civil Twilight 6:24 AM CDT 7:41 PM CDT
Nautical Twilight 5:54 AM CDT 8:11 PM CDT
Astronomical Twilight 5:22 AM CDT 8:43 PM CDT
Moon 12:06 AM CDT (9/16) 2:34 PM CDT (9/16)
Length of Visible Light 13h 16m
Length of Day
12h 23m
Last Quarter, 44% of the Moon is Illuminated
Sep 16
Last Quarter
Sep 24
New
Oct 1
First Quarter
Oct 8
Full
Oct 15
Last Quarter

Hourly Weather History & Observations

Time (CDT) Temp. Dew Point Humidity Pressure Visibility Wind Dir Wind Speed Gust Speed Precip Events Conditions
12:58 AM 62.8 °F 59.2 °F 88% 30.18 in 10.0 mi North 8.1 mph - N/A   Overcast
1:58 AM 62.2 °F 59.4 °F 90% 30.18 in 10.0 mi NNE 6.9 mph - N/A   Overcast
2:58 AM 61.9 °F 59.2 °F 91% 30.18 in 10.0 mi NE 5.8 mph - N/A   Overcast
3:58 AM 61.5 °F 59.2 °F 92% 30.18 in 10.0 mi NNE 5.8 mph - N/A   Overcast
4:58 AM 61.2 °F 58.5 °F 91% 30.18 in 10.0 mi NNE 5.8 mph - N/A   Overcast
5:58 AM 60.8 °F 58.8 °F 93% 30.18 in 10.0 mi NNE 4.6 mph - N/A   Overcast
6:03 AM 60.8 °F 59.0 °F 94% 30.20 in 10.0 mi NNE 5.8 mph - N/A   Overcast
6:58 AM 60.4 °F 59.4 °F 96% 30.19 in 10.0 mi Variable 3.5 mph - N/A   Overcast
7:03 AM 60.8 °F 59.0 °F 94% 30.21 in 10.0 mi North 3.5 mph - N/A   Overcast
7:23 AM 59.0 °F 59.0 °F 100% 30.21 in 6.0 mi North 6.9 mph - N/A   Overcast
7:53 AM 59.0 °F 59.0 °F 100% 30.21 in 2.5 mi NNE 4.6 mph - N/A   Overcast
7:58 AM 58.5 °F 58.5 °F 100% 30.21 in 2.0 mi NNE 5.8 mph - N/A   Overcast
8:28 AM 59.0 °F 59.0 °F 100% 30.21 in 1.8 mi NNE 5.8 mph - N/A   Overcast
8:43 AM 57.2 °F 57.2 °F 100% 30.21 in 1.0 mi NNE 3.5 mph - N/A   Overcast
8:48 AM 57.2 °F 57.2 °F 100% 30.21 in 0.8 mi NNE 5.8 mph - N/A   Overcast
8:58 AM 57.9 °F 57.9 °F 100% 30.22 in 0.5 mi North 5.8 mph - N/A Fog Fog
9:43 AM 57.2 °F 57.2 °F 100% 30.22 in 1.0 mi NNE 4.6 mph - N/A   Overcast
9:48 AM 57.2 °F 57.2 °F 100% 30.22 in 1.0 mi NNE 4.6 mph - N/A   Overcast
9:58 AM 57.9 °F 57.9 °F 100% 30.22 in 1.2 mi NNE 4.6 mph - N/A   Overcast
10:08 AM 57.2 °F 57.2 °F 100% 30.22 in 1.0 mi NNE 4.6 mph - N/A   Overcast
10:18 AM 57.2 °F 57.2 °F 100% 30.21 in 1.2 mi North 5.8 mph - N/A   Overcast
10:48 AM 59.0 °F 59.0 °F 100% 30.21 in 2.0 mi North 5.8 mph - N/A   Overcast
10:53 AM 59.0 °F 59.0 °F 100% 30.21 in 3.0 mi NNE 4.6 mph - N/A   Overcast
10:58 AM 58.6 °F 58.6 °F 100% 30.21 in 5.0 mi NNE 4.6 mph - N/A   Overcast
11:58 AM 59.5 °F 59.5 °F 100% 30.20 in 10.0 mi NE 4.6 mph - N/A   Overcast
12:28 PM 59.0 °F 59.0 °F 100% 30.19 in 10.0 mi NE 2.3 mph - N/A   Overcast
12:53 PM 60.8 °F 60.8 °F 100% 30.19 in 10.0 mi NNE 4.6 mph - N/A   Overcast
12:58 PM 61.0 °F 59.7 °F 96% 30.19 in 10.0 mi ENE 4.6 mph - N/A   Overcast
1:18 PM 62.6 °F 59.0 °F 88% 30.18 in 10.0 mi NE 4.6 mph - N/A   Overcast
1:58 PM 62.8 °F 59.7 °F 90% 30.17 in 10.0 mi NE 4.6 mph - N/A   Overcast
2:48 PM 64.4 °F 59.0 °F 83% 30.15 in 10.0 mi Variable 2.3 mph - N/A   Overcast
2:58 PM 64.8 °F 59.4 °F 83% 30.14 in 10.0 mi East 2.3 mph - N/A   Overcast
3:03 PM 64.4 °F 59.0 °F 83% 30.15 in 10.0 mi ESE 3.5 mph - N/A   Overcast
3:58 PM 64.6 °F 60.1 °F 85% 30.13 in 10.0 mi NE 4.6 mph - N/A   Overcast
4:58 PM 64.0 °F 59.9 °F 86% 30.12 in 10.0 mi NE 5.8 mph - N/A   Overcast
5:23 PM 64.4 °F 59.0 °F 83% 30.11 in 10.0 mi East 3.5 mph - N/A   Overcast
5:33 PM 64.4 °F 60.8 °F 88% 30.11 in 10.0 mi East 4.6 mph - N/A   Overcast
5:58 PM 64.6 °F 59.7 °F 84% 30.10 in 10.0 mi ESE 4.6 mph - N/A   Overcast
6:33 PM 64.4 °F 60.8 °F 88% 30.10 in 10.0 mi East 4.6 mph - N/A   Overcast
6:58 PM 63.3 °F 60.4 °F 90% 30.09 in 10.0 mi ESE 2.3 mph - N/A   Mostly Cloudy
7:58 PM 60.6 °F 59.7 °F 97% 30.08 in 10.0 mi East 3.5 mph - N/A   Scattered Clouds
8:58 PM 60.1 °F 59.9 °F 99% 30.09 in 10.0 mi East 4.6 mph - N/A   Mostly Cloudy
9:58 PM 58.8 °F 58.8 °F 100% 30.09 in 10.0 mi ESE 3.5 mph - N/A   Mostly Cloudy
10:58 PM 56.8 °F 56.8 °F 100% 30.08 in 10.0 mi SE 3.5 mph - N/A   Clear
11:58 PM 57.0 °F 57.0 °F 100% 30.08 in 8.0 mi SE 4.6 mph - N/A   Clear